* Astronomy

Members Login
Username 
 
Password 
    Remember Me  
Post Info TOPIC: Soyuz SL-4 rocket body re-entry


L

Posts: 131433
Date:
Soyuz SL-4 rocket body re-entry
Permalink  
 


A SL-4 rocket body that was launched on the 14th November, 2011, from the Baikonur Cosmodrome, for theSoyuz TMA-22 mission re-entered the Earths atmosphere on the 16th November, 2011 @ 18:56 GMT 1 minute.

SL-4 RB
1 37878U 11067B   11320.74408528  .35885970  12780-4  23414-3 0   145
2 37878 051.6241 112.0172 0002534 083.0901 278.4629 16.53478633   399

Period: 88.5 minutes
Inclination: 51.61
Apogee: 217 km
Perigee: 183 km
Revolution Number: 40
Predicted Location: 52S, 42E



__________________
Page 1 of 1  sorted by
 
Quick Reply

Please log in to post quick replies.



Create your own FREE Forum
Report Abuse
Powered by ActiveBoard